TimeCST,TemperatureF,Dew PointF,Humidity,Sea Level PressureIn,VisibilityMPH,Wind Direction,Wind SpeedMPH,Gust SpeedMPH,PrecipitationIn,Events,Conditions,WindDirDegrees,DateUTC
12:35 AM,32.0,21.2,64,30.18,10.0,SW,8.1,-,N/A,,Clear,230,2013-02-19 06:35:00
12:55 AM,32.0,21.2,64,30.18,10.0,SW,3.5,-,N/A,,Clear,220,2013-02-19 06:55:00
1:15 AM,30.2,21.2,69,30.19,10.0,Calm,Calm,-,N/A,,Clear,0,2013-02-19 07:15:00
1:35 AM,30.2,21.2,69,30.19,10.0,Calm,Calm,-,N/A,,Clear,0,2013-02-19 07:35:00
1:55 AM,30.2,21.2,69,30.19,10.0,SW,3.5,-,N/A,,Clear,230,2013-02-19 07:55:00
2:15 AM,30.2,21.2,69,30.20,10.0,Calm,Calm,-,N/A,,Clear,0,2013-02-19 08:15:00
2:35 AM,28.4,19.4,69,30.20,10.0,Calm,Calm,-,N/A,,Clear,0,2013-02-19 08:35:00
2:55 AM,32.0,21.2,64,30.20,10.0,Calm,Calm,-,N/A,,Clear,0,2013-02-19 08:55:00
3:15 AM,28.4,21.2,74,30.20,10.0,SW,3.5,-,N/A,,Clear,230,2013-02-19 09:15:00
3:35 AM,28.4,21.2,74,30.20,10.0,SW,6.9,-,N/A,,Clear,220,2013-02-19 09:35:00
3:55 AM,28.4,21.2,74,30.20,10.0,SW,6.9,-,N/A,,Clear,220,2013-02-19 09:55:00
4:15 AM,26.6,21.2,80,30.20,10.0,SW,9.2,-,N/A,,Clear,220,2013-02-19 10:15:00
4:35 AM,26.6,19.4,74,30.20,10.0,SW,9.2,-,N/A,,Clear,220,2013-02-19 10:35:00
4:55 AM,24.8,19.4,80,30.20,10.0,SW,6.9,-,N/A,,Clear,230,2013-02-19 10:55:00
5:15 AM,26.6,21.2,80,30.20,10.0,SW,5.8,-,N/A,,Clear,220,2013-02-19 11:15:00
5:55 AM,24.8,19.4,80,30.21,10.0,West,3.5,-,N/A,,Clear,260,2013-02-19 11:55:00
6:15 AM,24.8,19.4,80,30.23,10.0,SW,8.1,-,N/A,,Clear,230,2013-02-19 12:15:00
6:35 AM,24.8,19.4,80,30.24,10.0,SW,8.1,-,N/A,,Clear,230,2013-02-19 12:35:00
6:55 AM,24.8,19.4,80,30.24,10.0,SW,8.1,-,N/A,,Clear,220,2013-02-19 12:55:00
7:15 AM,23.0,19.4,86,30.26,10.0,SW,10.4,-,N/A,,Clear,220,2013-02-19 13:15:00
7:35 AM,23.0,19.4,86,30.26,10.0,SSW,10.4,-,N/A,,Clear,210,2013-02-19 13:35:00
7:55 AM,26.6,21.2,80,30.28,10.0,SSW,9.2,-,N/A,,Clear,210,2013-02-19 13:55:00
8:15 AM,30.2,23.0,75,30.28,10.0,SW,8.1,-,N/A,,Clear,220,2013-02-19 14:15:00
8:35 AM,32.0,23.0,69,30.28,10.0,SW,4.6,-,N/A,,Clear,220,2013-02-19 14:35:00
8:55 AM,32.0,23.0,69,30.28,10.0,SW,5.8,-,N/A,,Clear,220,2013-02-19 14:55:00
9:15 AM,35.6,24.8,65,30.28,10.0,SW,4.6,-,N/A,,Clear,230,2013-02-19 15:15:00
9:35 AM,41.0,24.8,53,30.28,10.0,SSW,4.6,-,N/A,,Clear,200,2013-02-19 15:35:00
9:55 AM,42.8,23.0,46,30.28,10.0,SE,3.5,-,N/A,,Clear,140,2013-02-19 15:55:00
10:15 AM,44.6,23.0,43,30.28,10.0,ENE,6.9,-,N/A,,Clear,60,2013-02-19 16:15:00
10:35 AM,44.6,26.6,49,30.28,10.0,NE,8.1,-,N/A,,Clear,50,2013-02-19 16:35:00
10:55 AM,46.4,24.8,43,30.27,10.0,ENE,6.9,-,N/A,,Clear,60,2013-02-19 16:55:00
11:15 AM,46.4,24.8,43,30.28,10.0,East,6.9,-,N/A,,Clear,80,2013-02-19 17:15:00
11:35 AM,50.0,23.0,35,30.28,10.0,ENE,9.2,-,N/A,,Clear,70,2013-02-19 17:35:00
11:55 AM,50.0,23.0,35,30.27,10.0,East,8.1,17.3,N/A,,Clear,100,2013-02-19 17:55:00
12:15 PM,51.8,23.0,33,30.27,10.0,SE,12.7,16.1,N/A,,Clear,130,2013-02-19 18:15:00
12:35 PM,51.8,21.2,30,30.26,10.0,SSE,10.4,16.1,N/A,,Clear,150,2013-02-19 18:35:00
12:55 PM,51.8,21.2,30,30.24,10.0,SSE,10.4,16.1,N/A,,Clear,160,2013-02-19 18:55:00
1:15 PM,51.8,19.4,28,30.23,10.0,ESE,10.4,16.1,N/A,,Clear,110,2013-02-19 19:15:00
1:35 PM,51.8,21.2,30,30.21,10.0,ESE,11.5,17.3,N/A,,Clear,120,2013-02-19 19:35:00
1:55 PM,53.6,21.2,28,30.20,10.0,SE,10.4,17.3,N/A,,Clear,130,2013-02-19 19:55:00
2:15 PM,53.6,21.2,28,30.19,10.0,ESE,13.8,18.4,N/A,,Clear,120,2013-02-19 20:15:00
2:35 PM,53.6,19.4,26,30.17,10.0,SE,17.3,20.7,N/A,,Clear,130,2013-02-19 20:35:00
2:55 PM,53.6,19.4,26,30.17,10.0,SE,12.7,-,N/A,,Clear,140,2013-02-19 20:55:00
3:15 PM,53.6,19.4,26,30.16,10.0,SE,10.4,17.3,N/A,,Clear,140,2013-02-19 21:15:00
3:35 PM,53.6,19.4,26,30.15,10.0,SE,13.8,19.6,N/A,,Clear,140,2013-02-19 21:35:00
3:55 PM,53.6,21.2,28,30.14,10.0,SSE,17.3,-,N/A,,Clear,150,2013-02-19 21:55:00
4:15 PM,53.6,19.4,26,30.14,10.0,SE,19.6,23.0,N/A,,Clear,140,2013-02-19 22:15:00
4:35 PM,53.6,19.4,26,30.13,10.0,SE,16.1,23.0,N/A,,Clear,140,2013-02-19 22:35:00
4:55 PM,51.8,19.4,28,30.13,10.0,SSE,17.3,24.2,N/A,,Clear,150,2013-02-19 22:55:00
5:15 PM,51.8,19.4,28,30.12,10.0,SSE,11.5,18.4,N/A,,Clear,150,2013-02-19 23:15:00
6:35 PM,46.4,23.0,40,30.13,10.0,ESE,12.7,-,N/A,,Clear,120,2013-02-20 00:35:00
6:55 PM,44.6,26.6,49,30.13,10.0,ESE,10.4,-,N/A,,Clear,110,2013-02-20 00:55:00
7:35 PM,42.8,26.6,53,30.15,10.0,ESE,9.2,-,N/A,,Clear,110,2013-02-20 01:35:00
7:55 PM,42.8,26.6,53,30.15,10.0,ESE,9.2,-,N/A,,Clear,120,2013-02-20 01:55:00
8:15 PM,42.8,24.8,49,30.15,10.0,ESE,10.4,-,N/A,,Clear,120,2013-02-20 02:15:00
8:35 PM,42.8,24.8,49,30.15,10.0,ESE,12.7,-,N/A,,Clear,120,2013-02-20 02:35:00
9:15 PM,41.0,24.8,53,30.16,10.0,ESE,9.2,-,N/A,,Mostly Cloudy,120,2013-02-20 03:15:00
9:35 PM,42.8,24.8,49,30.16,10.0,ESE,9.2,-,N/A,,Overcast,120,2013-02-20 03:35:00
9:55 PM,42.8,24.8,49,30.16,10.0,ESE,9.2,-,N/A,,Overcast,120,2013-02-20 03:55:00
10:15 PM,41.0,24.8,53,30.16,10.0,ESE,9.2,-,N/A,,Overcast,110,2013-02-20 04:15:00
10:35 PM,41.0,23.0,49,30.15,10.0,ESE,11.5,-,N/A,,Mostly Cloudy,110,2013-02-20 04:35:00
10:55 PM,41.0,24.8,53,30.13,10.0,East,12.7,-,N/A,,Clear,100,2013-02-20 04:55:00
11:15 PM,39.2,26.6,61,30.12,10.0,East,11.5,-,N/A,,Clear,100,2013-02-20 05:15:00
11:35 PM,41.0,24.8,53,30.12,10.0,ESE,12.7,-,N/A,,Clear,110,2013-02-20 05:35:00
11:55 PM,41.0,24.8,53,30.12,10.0,ESE,11.5,-,N/A,,Clear,110,2013-02-20 05:55:00